Flag for Finland Weather past 2 weeks in Lahti, Finland

Now
66 °F

Clear.


Feels Like: 66 °F
Forecast: 64 / 86 °F
Wind: 2 mph from North

Location: Utti

Current Time: Jul 24, 2014 at 5:33:30 AM

Latest Report: Jul 24, 2014 at 4:50 AM


Visibility: 10 mi

Pressure: 30.15 "Hg

Humidity: 78%

Dew point: 59 °F

Location of LahtiLocation

Historic Weather in Lahti — Graph

°F

Lahti temperature yesterday

Maximum temperature yesterday: 84 °F (at 1:20 PM)
Minimum temperature yesterday: 63 °F (at 3:20 AM)
Average temperature yesterday: 75 °F

Past Weeks' High & Low Weather Summary

 TemperatureHumidityPressure
High84 °F (Jul 13, 5:20 PM)100% (Jul 15, 3:50 AM)30.30 "Hg (Jul 15, 3:50 AM)
Low46 °F (Jul 11, 2:50 AM)27% (Jul 23, 5:20 PM)29.89 "Hg (Jul 13, 8:20 PM)
Average68 °F64%30.09 "Hg
* Reported Jul 9 3:20 AM — Jul 24 3:50 AM, Lahti, Weather by CustomWeather, © 2014

Note: Actual official high and low records may vary slightly from our data, if they occured in-between our weather recording intervals... More about our weather records

Advertising

Lahti weather history for previous 24 hours

 ConditionsComfort  
Time TempWeatherWind HumidityBarometerVisibility
3:50 AM
Jul 24
68 °FClear.3 mph73%30.15 "Hg10 mi
3:20 AM68 °FClear.5 mph69%30.15 "Hg10 mi
2:50 AM70 °FClear.1 mph64%30.15 "Hg10 mi
2:20 AM70 °FClear.1 mph64%30.15 "Hg10 mi
1:50 AM70 °FClear.6 mph64%30.15 "Hg10 mi
1:20 AM70 °FClear.6 mph60%30.15 "Hg10 mi
12:50 AM72 °FPassing clouds.7 mph57%30.15 "HgN/A
12:20 AM70 °FClear.6 mph64%30.15 "Hg10 mi
11:50 PM
Jul 23
72 °FClear.3 mph65%30.15 "Hg10 mi
11:20 PM73 °FClear.3 mph53%30.15 "Hg10 mi
10:50 PM73 °FSunny.2 mph50%30.15 "Hg10 mi
9:50 PM79 °FSunny.2 mph39%30.15 "Hg10 mi
9:20 PM79 °FSunny.2 mph37%30.15 "Hg10 mi
8:50 PM81 °FSunny.3 mph34%30.15 "Hg10 mi
8:20 PM82 °FSunny.5 mph32%30.15 "Hg10 mi
7:50 PM82 °FPassing clouds.7 mph30%30.15 "HgN/A
7:20 PM82 °FPassing clouds.7 mph30%30.15 "HgN/A
6:50 PM82 °FPassing clouds.9 mph30%30.15 "HgN/A
6:20 PM84 °FPassing clouds.8 mph29%30.15 "HgN/A
5:50 PM84 °FPassing clouds.8 mph27%30.15 "HgN/A
5:20 PM84 °FPassing clouds.8 mph27%30.15 "HgN/A
4:50 PM84 °FPassing clouds.8 mph31%30.15 "HgN/A
4:20 PM84 °FPassing clouds.7 mph31%30.15 "HgN/A
3:50 PM82 °FPassing clouds.8 mph32%30.18 "HgN/A
1:20 PM84 °FPassing clouds.9 mph29%30.21 "HgN/A
12:50 PM82 °FPassing clouds.12 mph32%30.21 "HgN/A
12:20 PM82 °FPassing clouds.9 mph30%30.21 "HgN/A
11:50 AM82 °FPassing clouds.7 mph32%30.21 "HgN/A
8:50 AM73 °FPassing clouds.5 mph61%30.21 "HgN/A
8:20 AM72 °FPassing clouds.5 mph65%30.21 "HgN/A
7:50 AM70 °FSunny.6 mph69%30.24 "Hg10 mi
7:20 AM68 °FSunny.6 mph78%30.24 "Hg10 mi
6:50 AM66 °FSunny.6 mph83%30.21 "Hg10 mi
6:20 AM66 °FSunny.5 mph83%30.21 "Hg10 mi
5:50 AM63 °FSunny.5 mph94%30.21 "Hg10 mi
5:20 AM63 °FClear.5 mph94%30.21 "Hg10 mi
Weather by CustomWeather, © 2014

See weather overviewHow to use our weather pages